{"data":{"norad_id":50195,"epoch":"2026-09-20T04:26:50.938656Z","epoch_age_seconds":71930,"freshness":"FRESH","line1":"1 50195U 21125AR  26263.18531179  .00001827  00000+0  70641-4 0  9994","line2":"2 50195  53.1602  74.7937 0001163  89.0178 271.0957 15.31690934266242","mean_motion":15.31690934,"eccentricity":0.0001163,"inclination_deg":53.1602,"raan_deg":74.7937,"arg_perigee_deg":89.0178,"mean_anomaly_deg":271.0957,"bstar":7.0641e-5,"rev_number":26624,"period_min":94.013744420322,"perigee_km":469.97049309559,"apogee_km":471.56354817079,"semimajor_km":6848.9040206332,"source":"CELESTRAK","updated_at":"2026-09-20T09:00:39.419203Z"}}